DW2147 Weather Reports


Display with metric or nautical units.
time (UTC)temp
F
wind
direction
speed
MPH
gust
MPH
rain 1hr
in
rain 24hr
in
rain mn
in
humidity
%
barometer
mb
20260904092056 68 0 3.0 6.0 0.27 1.09 0.36 81 1017.0
20260904091555 68 0 3.0 6.0 0.31 1.09 0.36 81 1017.1
20260904091054 68 0 3.0 5.0 0.31 1.09 0.36 81 1016.8
20260904090552 68 174 2.0 5.0 0.31 1.09 0.36 81 1016.7
20260904090048 68 0 1.0 5.0 0.32 1.09 0.36 81 1016.7
20260904085817 68 304 1.0 5.0 0.31 1.07 0.35 81 1016.7
20260904085047 68 0 1.0 5.0 0.30 1.06 0.34 81 1017.0
20260904084818 68 0 2.0 8.0 0.24 1.00 0.30 81 1016.9
20260904084046 68 0 3.0 8.0 0.20 0.95 0.22 81 1016.5
20260904083551 68 0 4.0 10.0 0.19 0.93 0.20 81 1016.8
20260904083051 68 0 5.0 10.0 0.17 0.91 0.18 81 1016.3
20260904082547 68 0 4.0 9.0 0.15 0.89 0.16 81 1016.6
20260904082048 68 0 3.0 8.0 0.08 0.82 0.09 81 1017.2
20260904081547 68 0 3.0 8.0 0.04 0.78 0.05 81 1017.7
20260904081318 68 0 3.0 6.0 0.04 0.78 0.05 81 1017.7
20260904080546 68 0 2.0 6.0 0.04 0.78 0.05 81 1017.4
20260904080043 68 0 1.0 4.0 0.03 0.77 0.04 81 1017.1
20260904075541 68 84 2.0 3.0 0.02 0.76 0.03 81 1017.0
20260904075038 68 87 1.0 3.0 0.02 0.76 0.03 81 1017.2
20260904074812 68 83 1.0 3.0 0.02 0.76 0.03 81 1017.4
20260904074040 68 78 1.0 3.0 0.01 0.75 0.02 80 1017.6
20260904073535 68 78 1.0 3.0 0.00 0.74 0.01 80 1017.7
20260904073036 68 62 1.0 4.0 0.00 0.74 0.01 80 1017.8
20260904072535 68 29 1.0 4.0 0.00 0.74 0.01 80 1017.9
20260904072306 68 0 2.0 5.0 0.00 0.74 0.01 80 1018.2
20260904071534 68 0 3.0 9.0 0.00 0.74 0.01 80 1018.3
20260904071308 68 49 3.0 10.0 0.00 0.74 0.01 80 1017.8
20260904070530 67 49 4.0 10.0 0.00 0.74 0.01 80 1017.4
20260904070032 67 347 5.0 13.0 0.01 0.74 0.01 80 1017.5
20260904065530 67 0 3.0 13.0 0.01 0.74 0.01 80 1017.0
20260904065032 67 0 1.0 4.0 0.01 0.74 0.01 79 1016.3
20260904064530 67 0 0.0 2.0 0.01 0.74 0.01 79 1016.0
20260904064032 67 0 0.0 0.0 0.01 0.74 0.01 79 1016.0
20260904063526 67 0 1.0 4.0 0.01 0.74 0.01 79 1016.0
20260904063258 67 0 1.0 4.0 0.01 0.74 0.01 79 1015.9
20260904062527 67 0 0.0 3.0 0.01 0.74 0.01 79 1015.8
20260904062026 67 0 0.0 2.0 0.01 0.74 0.01 79 1015.8
20260904061529 67 0 1.0 4.0 0.01 0.74 0.01 79 1015.7
20260904061024 67 0 1.0 4.0 0.01 0.74 0.01 79 1015.8
20260904060524 67 0 1.0 4.0 0.01 0.74 0.01 78 1015.9
20260904060021 67 0 1.0 3.0 0.00 0.73 0.00 78 1015.8
20260904055519 67 0 0.0 3.0 0.00 0.73 0.00 78 1015.8
20260904055022 67 223 0.0 0.0 0.00 0.73 0.00 78 1016.0
20260904054518 67 0 0.0 0.0 0.00 0.73 0.00 78 1016.1
20260904054015 67 224 0.0 0.0 0.00 0.73 0.00 78 1016.1
20260904053747 67 0 0.0 0.0 0.00 0.73 0.00 78 1016.0
20260904053016 67 0 0.0 0.0 0.00 0.73 0.00 78 1016.0
20260904052513 67 0 0.0 0.0 0.00 0.73 0.00 78 1016.0
20260904052243 67 0 0.0 0.0 0.00 0.73 0.00 78 1016.1
20260904051509 67 0 0.0 0.0 0.00 0.73 0.00 78 1016.2
20260904051007 67 0 0.0 0.0 0.00 0.73 0.00 78 1016.2
20260904050507 67 0 0.0 0.0 0.00 0.73 0.00 77 1016.3
20260904050006 67 0 0.0 0.0 0.00 0.73 0.00 77 1016.6
20260904045506 67 0 0.0 0.0 0.00 0.73 0.00 77 1016.6
20260904045007 68 0 0.0 1.0 0.00 0.73 0.00 78 1016.7
20260904044507 68 0 0.0 1.0 0.00 0.73 0.00 77 1016.8
20260904044001 68 0 0.0 2.0 0.00 0.73 0.00 77 1016.9
20260904043500 68 0 1.0 3.0 0.00 0.73 0.00 77 1017.0
20260904043231 68 0 1.0 3.0 0.00 0.73 0.00 77 1017.0
20260904042458 68 0 0.0 2.0 0.00 0.73 0.00 77 1017.0
20260904041959 68 0 1.0 3.0 0.00 0.73 0.00 77 1017.1
20260904041732 68 247 0.0 3.0 0.00 0.73 0.00 77 1017.0
20260904040953 68 0 1.0 3.0 0.00 0.73 0.00 77 1017.1
20260904040451 68 240 1.0 3.0 0.00 0.73 0.00 77 1016.9
20260904035950 68 0 1.0 3.0 0.00 0.73 0.73 76 1017.0
20260904035450 68 0 0.0 3.0 0.00 0.73 0.73 76 1017.0
20260904034951 68 0 0.0 0.0 0.00 0.73 0.73 76 1017.2
20260904034453 68 0 0.0 0.0 0.00 0.73 0.73 76 1017.2
20260904033946 68 0 0.0 3.0 0.00 0.73 0.73 76 1017.3
20260904033443 68 0 1.0 3.0 0.00 0.73 0.73 75 1017.5
20260904032941 68 0 2.0 5.0 0.00 0.73 0.73 75 1017.7
20260904032440 68 0 2.0 6.0 0.00 0.73 0.73 75 1017.7
20260904031941 68 0 3.0 8.0 0.00 0.73 0.73 75 1017.7
20260904031433 68 0 4.0 8.0 0.00 0.73 0.73 75 1017.8
20260904030933 68 0 4.0 9.0 0.00 0.73 0.73 75 1017.9
20260904030433 68 0 4.0 10.0 0.00 0.73 0.73 75 1017.9
20260904025934 68 0 4.0 10.0 0.00 0.73 0.73 74 1018.1
20260904025431 68 0 2.0 5.0 0.00 0.73 0.73 74 1018.1
20260904024929 68 0 1.0 4.0 0.00 0.73 0.73 74 1018.1
20260904024658 68 0 1.0 4.0 0.01 0.73 0.73 74 1017.9
20260904023926 68 275 1.0 4.0 0.04 0.73 0.73 74 1017.8
20260904023425 68 164 2.0 5.0 0.15 0.73 0.73 74 1017.9
20260904022926 68 0 3.0 5.0 0.24 0.73 0.73 74 1018.1
20260904022423 68 0 3.0 6.0 0.32 0.73 0.73 73 1018.2
20260904022157 69 0 3.0 6.0 0.48 0.73 0.73 73 1018.4
20260904021417 69 0 3.0 6.0 0.52 0.73 0.73 73 1018.4
20260904020914 69 0 2.0 5.0 0.52 0.73 0.73 73 1018.5
20260904020646 69 163 2.0 4.0 0.52 0.73 0.73 73 1018.5
20260904015915 69 57 0.0 2.0 0.52 0.73 0.73 73 1018.5
20260904015415 69 56 1.0 4.0 0.52 0.73 0.73 73 1018.8
20260904014918 69 56 2.0 7.0 0.52 0.73 0.73 73 1019.0
20260904014640 69 84 2.0 7.0 0.52 0.72 0.72 73 1019.1
20260904013908 69 93 2.0 13.0 0.49 0.69 0.70 72 1019.2
20260904013642 69 321 6.0 18.0 0.39 0.58 0.58 72 1019.4
20260904012909 69 0 11.0 24.0 0.38 0.49 0.50 72 1019.6
20260904012409 69 0 10.0 24.0 0.34 0.38 0.40 72 1019.8
20260904011909 69 0 5.0 19.0 0.21 0.25 0.26 71 1019.1
20260904011402 70 0 3.0 8.0 0.17 0.21 0.21 71 1019.4
20260904010904 70 46 2.0 6.0 0.17 0.21 0.21 71 1018.2
20260904010406 70 51 2.0 9.0 0.17 0.21 0.21 70 1017.8
20260904005903 70 48 2.0 9.0 0.17 0.21 0.21 70 1017.7
20260904005403 70 55 3.0 6.0 0.17 0.21 0.21 70 1018.2
20260904004903 71 0 3.0 8.0 0.17 0.21 0.21 70 1017.8
20260904004401 71 0 3.0 9.0 0.16 0.20 0.20 70 1017.3
20260904004129 71 341 4.0 12.0 0.16 0.20 0.20 71 1017.5
20260904003358 72 194 4.0 13.0 0.15 0.19 0.19 72 1016.8
20260904002859 73 0 4.0 13.0 0.07 0.11 0.13 72 1016.9
20260904002357 74 34 3.0 13.0 0.00 0.04 0.04 72 1016.9
20260904002131 74 38 2.0 8.0 0.00 0.04 0.04 70 1016.4
20260904001352 75 0 2.0 8.0 0.00 0.04 0.04 70 1016.1
20260904000853 76 20 2.0 5.0 0.00 0.04 0.04 69 1016.0
20260904000350 76 234 3.0 14.0 0.00 0.04 0.04 68 1016.4
20260904000122 78 40 4.0 14.0 0.00 0.04 0.04 66 1016.6
20260903235351 79 173 4.0 12.0 0.00 0.04 0.04 65 1016.6
20260903234851 81 51 3.0 9.0 0.00 0.04 0.04 64 1016.4
20260903234344 83 57 1.0 9.0 0.00 0.04 0.04 68 1016.5
20260903234115 84 200 0.0 0.0 0.00 0.04 0.04 68 1016.3
20260903233344 84 200 0.0 0.0 0.00 0.04 0.04 68 1016.2
20260903232839 84 0 0.0 1.0 0.00 0.04 0.04 68 1016.1
20260903232339 84 0 1.0 2.0 0.00 0.04 0.04 68 1016.1
20260903231832 84 200 1.0 3.0 0.00 0.04 0.04 67 1016.2
20260903231331 85 0 2.0 3.0 0.00 0.04 0.04 67 1016.4
20260903230829 85 0 1.0 3.0 0.00 0.04 0.04 67 1016.3
20260903230559 85 0 0.0 2.0 0.00 0.04 0.04 67 1016.6
20260903225826 85 0 0.0 2.0 0.00 0.04 0.04 67 1016.6
20260903225325 85 205 1.0 5.0 0.00 0.04 0.04 66 1016.5
20260903225052 85 0 2.0 5.0 0.00 0.04 0.04 66 1016.2
20260903224323 85 0 2.0 5.0 0.00 0.04 0.04 66 1015.7
20260903223823 85 0 3.0 6.0 0.00 0.04 0.04 66 1015.9
20260903223321 86 0 3.0 8.0 0.00 0.04 0.04 66 1015.8
20260903222821 86 0 3.0 8.0 0.00 0.04 0.04 66 1015.4
20260903222317 86 0 2.0 5.0 0.00 0.04 0.04 65 1015.2
20260903221817 87 0 2.0 5.0 0.00 0.04 0.04 65 1015.0
20260903221546 87 234 3.0 9.0 0.00 0.04 0.04 65 1014.9
20260903220815 87 0 3.0 9.0 0.00 0.04 0.04 64 1015.0
20260903220315 87 0 4.0 10.0 0.00 0.04 0.04 63 1015.2
20260903220048 88 0 3.0 10.0 0.00 0.04 0.04 63 1015.2
20260903215313 88 241 3.0 9.0 0.00 0.04 0.04 62 1015.1
20260903214811 88 0 3.0 9.0 0.00 0.04 0.04 61 1014.9
20260903214309 89 0 3.0 6.0 0.00 0.04 0.04 61 1015.0
20260903214038 89 0 3.0 10.0 0.00 0.04 0.04 60 1014.6
20260903213307 89 0 4.0 11.0 0.00 0.04 0.04 60 1014.4
20260903212809 89 0 5.0 11.0 0.00 0.04 0.04 60 1014.4
20260903212306 89 0 6.0 15.0 0.00 0.04 0.04 61 1014.4
20260903211804 89 0 6.0 15.0 0.00 0.04 0.04 60 1014.3
20260903211303 90 0 6.0 15.0 0.00 0.04 0.04 60 1014.3
20260903210804 90 0 8.0 15.0 0.00 0.04 0.04 59 1014.3
20260903210535 90 0 7.0 14.0 0.00 0.04 0.04 58 1014.4
20260903210035 91 0 6.0 13.0 0.00 0.04 0.04 58 1014.5
20260903205306 91 0 5.0 11.0 0.00 0.04 0.04 58 1015.0
20260903204802 91 0 5.0 14.0 0.00 0.04 0.04 58 1015.1
20260903204302 92 0 4.0 14.0 0.00 0.04 0.04 57 1015.1
20260903203801 92 0 5.0 15.0 0.00 0.04 0.04 56 1014.9
20260903203301 92 0 4.0 15.0 0.00 0.04 0.04 57 1014.9
20260903202801 92 0 4.0 11.0 0.00 0.04 0.04 58 1014.9
20260903202301 92 0 4.0 11.0 0.00 0.04 0.04 58 1015.1
20260903201802 92 0 4.0 11.0 0.00 0.04 0.04 57 1015.0
20260903201300 92 0 5.0 11.0 0.00 0.04 0.04 57 1015.2
20260903200800 92 0 5.0 12.0 0.00 0.04 0.04 58 1015.3
20260903200531 92 0 5.0 12.0 0.00 0.04 0.04 57 1015.4
20260903195757 92 0 5.0 12.0 0.00 0.04 0.04 59 1015.4
20260903195257 92 0 5.0 12.0 0.00 0.04 0.04 58 1015.3
20260903194758 92 0 4.0 9.0 0.00 0.04 0.04 57 1015.5
20260903194253 92 0 3.0 8.0 0.00 0.04 0.04 58 1015.5
20260903193748 91 234 4.0 12.0 0.00 0.04 0.04 58 1015.6
20260903193249 91 202 4.0 12.0 0.00 0.04 0.04 57 1015.7
20260903192747 91 0 4.0 10.0 0.00 0.04 0.04 58 1015.7
20260903192520 91 0 6.0 12.0 0.00 0.04 0.04 58 1015.9
20260903191749 91 0 6.0 12.0 0.00 0.04 0.04 58 1016.0
20260903191248 91 0 5.0 12.0 0.00 0.04 0.04 58 1016.1
20260903191016 91 0 5.0 11.0 0.00 0.04 0.04 59 1016.2
20260903190244 90 0 7.0 13.0 0.00 0.04 0.04 57 1016.4
20260903185743 91 0 7.0 16.0 0.00 0.04 0.04 58 1016.4
20260903185244 91 0 6.0 16.0 0.00 0.04 0.04 58 1016.5
20260903184744 91 193 5.0 12.0 0.00 0.04 0.04 58 1016.6
20260903184245 90 0 6.0 12.0 0.00 0.04 0.04 58 1016.7
20260903183739 90 0 6.0 12.0 0.00 0.04 0.04 57 1016.7
20260903183512 90 0 6.0 12.0 0.00 0.04 0.04 57 1016.9
20260903182741 90 0 5.0 11.0 0.00 0.04 0.04 56 1017.0
20260903182239 90 0 4.0 10.0 0.00 0.04 0.04 55 1017.2
20260903181740 90 0 4.0 10.0 0.00 0.04 0.04 59 1017.1
20260903181241 89 0 5.0 10.0 0.00 0.04 0.04 56 1017.2
20260903180741 89 0 5.0 10.0 0.00 0.04 0.04 56 1017.2
20260903180239 89 0 5.0 12.0 0.00 0.04 0.04 56 1017.4
20260903175738 89 0 5.0 12.0 0.00 0.04 0.04 57 1017.3
20260903175237 89 0 6.0 12.0 0.00 0.04 0.04 56 1017.3
20260903174738 89 0 6.0 12.0 0.00 0.04 0.04 56 1017.4
20260903174238 89 0 5.0 13.0 0.00 0.04 0.04 57 1017.4
20260903173735 89 0 5.0 13.0 0.00 0.04 0.04 56 1017.5
20260903173235 89 0 4.0 9.0 0.00 0.04 0.04 59 1017.5
20260903172736 88 0 4.0 10.0 0.00 0.04 0.04 58 1017.5
20260903172235 88 0 4.0 10.0 0.00 0.04 0.04 58 1017.5
20260903171735 88 0 4.0 8.0 0.00 0.04 0.04 57 1017.6
20260903171236 88 0 5.0 9.0 0.00 0.04 0.04 60 1017.7
20260903170739 87 0 5.0 10.0 0.00 0.04 0.04 60 1017.7
20260903170231 87 0 4.0 10.0 0.00 0.04 0.04 58 1017.8
20260903165732 87 0 3.0 8.0 0.00 0.04 0.04 60 1017.9
20260903165229 86 0 4.0 8.0 0.00 0.04 0.04 59 1018.2
20260903164730 86 0 4.0 9.0 0.00 0.04 0.04 58 1018.3
20260903164230 86 0 5.0 11.0 0.00 0.04 0.04 60 1018.3
20260903163729 86 0 5.0 11.0 0.00 0.04 0.04 62 1018.4
20260903163458 86 0 4.0 9.0 0.00 0.04 0.04 61 1018.3
20260903162728 86 0 3.0 9.0 0.00 0.04 0.04 62 1018.3
20260903162229 85 0 2.0 9.0 0.00 0.04 0.04 63 1018.6
20260903161727 85 55 2.0 5.0 0.00 0.04 0.04 61 1018.6
20260903161228 84 0 2.0 5.0 0.00 0.04 0.04 62 1018.9
20260903160726 84 150 1.0 4.0 0.00 0.04 0.04 62 1018.9
20260903160226 83 0 2.0 6.0 0.00 0.04 0.04 62 1019.0
20260903155951 83 0 3.0 6.0 0.00 0.04 0.04 63 1018.9
20260903155219 82 0 1.0 6.0 0.00 0.04 0.04 65 1018.9
20260903154720 81 22 2.0 4.0 0.00 0.04 0.04 64 1019.0
20260903154228 81 178 2.0 5.0 0.00 0.04 0.04 65 1019.2
20260903154220 81 0 2.0 4.0 0.00 0.04 0.04 64 1019.0
20260903153218 80 178 2.0 5.0 0.00 0.04 0.04 63 1019.2
20260903152714 80 15 1.0 5.0 0.01 0.04 0.04 64 1019.2
20260903152214 79 0 1.0 3.0 0.03 0.04 0.04 64 1019.3
20260903151715 78 347 1.0 4.0 0.04 0.04 0.04 65 1019.3
20260903151443 78 100 2.0 4.0 0.04 0.04 0.04 67 1019.4
20260903150713 77 69 2.0 7.0 0.04 0.04 0.04 68 1019.5
20260903150212 76 104 2.0 7.0 0.04 0.04 0.04 68 1019.7
20260903145709 76 46 1.0 4.0 0.04 0.04 0.04 69 1019.5
20260903145213 76 32 1.0 2.0 0.04 0.04 0.04 70 1019.6
20260903145209 76 32 0.0 2.0 0.04 0.04 0.04 70 1019.6
20260903144209 75 0 1.0 2.0 0.04 0.04 0.04 70 1019.7
20260903143937 75 40 0.0 2.0 0.04 0.04 0.04 70 1019.7
20260903143209 75 42 0.0 2.0 0.04 0.04 0.04 69 1019.7
20260903142701 75 20 1.0 3.0 0.03 0.03 0.03 69 1019.8
20260903142202 75 19 1.0 3.0 0.01 0.01 0.02 68 1019.8
20260903141701 76 20 1.0 4.0 0.00 0.00 0.00 67 1019.8
20260903141200 76 0 1.0 4.0 0.00 0.00 0.00 66 1019.7
20260903140700 76 44 2.0 5.0 0.00 0.00 0.00 66 1019.5
20260903140159 76 29 2.0 5.0 0.00 0.00 0.00 66 1019.5
20260903135653 76 37 1.0 3.0 0.00 0.00 0.00 66 1019.4
20260903135152 77 0 1.0 3.0 0.00 0.00 0.00 66 1019.2
20260903134650 77 81 1.0 6.0 0.00 0.00 0.00 66 1019.3
20260903134148 77 113 1.0 6.0 0.00 0.00 0.00 66 1019.2
20260903133648 77 58 1.0 4.0 0.00 0.00 0.00 66 1019.4
20260903133143 77 40 1.0 4.0 0.00 0.00 0.00 67 1019.4
20260903132644 77 40 2.0 9.0 0.00 0.00 0.00 68 1019.4
20260903132145 78 0 4.0 14.0 0.00 0.00 0.00 68 1019.4
20260903131642 78 0 6.0 14.0 0.00 0.00 0.00 68 1019.2
20260903131142 78 0 4.0 12.0 0.00 0.00 0.00 68 1019.1
20260903130914 78 0 2.0 5.0 0.00 0.00 0.00 68 1018.9
20260903130137 78 0 3.0 4.0 0.00 0.00 0.00 69 1018.5
20260903125638 77 0 3.0 5.0 0.00 0.00 0.00 68 1018.5
20260903125137 77 0 3.0 5.0 0.00 0.00 0.00 69 1018.6
20260903124909 77 0 3.0 5.0 0.00 0.00 0.00 69 1018.5
20260903124408 77 0 3.0 6.0 0.00 0.00 0.00 69 1018.6
20260903123638 77 0 3.0 6.0 0.00 0.00 0.00 69 1018.5
20260903123129 77 0 2.0 6.0 0.00 0.00 0.00 69 1018.5
20260903122628 77 0 2.0 5.0 0.00 0.00 0.00 70 1018.4
20260903122128 77 222 2.0 5.0 0.00 0.00 0.00 70 1018.3
20260903121630 76 0 2.0 4.0 0.00 0.00 0.00 70 1018.5
20260903121400 76 0 3.0 5.0 0.00 0.00 0.00 70 1018.6
20260903120633 76 0 3.0 5.0 0.00 0.00 0.00 70 1018.5
20260903120628 76 0 3.0 5.0 0.00 0.00 0.00 70 1018.5
20260903115857 76 0 3.0 5.0 0.00 0.00 0.00 70 1018.5
20260903115125 76 0 2.0 5.0 0.00 0.00 0.00 70 1018.4
20260903114624 76 189 1.0 5.0 0.00 0.00 0.00 71 1018.4
20260903114124 76 0 1.0 4.0 0.00 0.00 0.00 70 1018.3
20260903113624 76 0 0.0 3.0 0.00 0.00 0.00 70 1018.3
20260903113122 76 0 0.0 3.0 0.00 0.00 0.00 70 1018.3
20260903112619 76 0 0.0 0.0 0.00 0.00 0.00 70 1018.3
20260903112117 76 0 0.0 0.0 0.00 0.00 0.00 70 1018.3
20260903111614 76 0 0.0 0.0 0.00 0.00 0.00 70 1018.2
20260903111115 76 0 0.0 2.0 0.00 0.00 0.00 70 1018.3
20260903110616 76 0 1.0 2.0 0.00 0.00 0.00 70 1018.3
20260903110114 76 0 2.0 5.0 0.00 0.00 0.00 70 1018.2
20260903105612 76 186 2.0 9.0 0.00 0.00 0.00 70 1018.1
20260903105112 76 0 2.0 9.0 0.00 0.00 0.00 70 1018.1
20260903104613 76 0 3.0 6.0 0.00 0.00 0.00 70 1017.8
20260903104112 76 0 3.0 6.0 0.00 0.00 0.00 70 1017.7
20260903103843 76 0 3.0 8.0 0.00 0.00 0.00 70 1017.5
20260903103114 76 0 3.0 8.0 0.00 0.00 0.00 70 1017.6
20260903102614 76 0 2.0 6.0 0.00 0.00 0.00 70 1017.4
20260903102338 76 0 2.0 5.0 0.00 0.00 0.00 70 1017.4
20260903101602 76 0 2.0 8.0 0.00 0.00 0.00 70 1017.3
20260903101056 76 0 3.0 8.0 0.00 0.00 0.00 70 1017.2
20260903100558 76 0 4.0 10.0 0.00 0.00 0.00 70 1017.1
20260903100327 76 0 4.0 10.0 0.00 0.00 0.00 70 1017.2
20260903095557 76 0 4.0 10.0 0.00 0.00 0.00 70 1017.1
20260903095056 76 0 4.0 10.0 0.00 0.00 0.00 70 1017.1
20260903094558 76 0 5.0 10.0 0.00 0.00 0.00 71 1017.0
20260903094052 76 0 4.0 10.0 0.00 0.00 0.00 71 1017.0
20260903093552 76 0 4.0 10.0 0.00 0.00 0.00 71 1016.9
20260903093052 76 0 4.0 10.0 0.00 0.00 0.00 71 1016.8
20260903092553 76 0 4.0 10.0 0.00 0.00 0.00 71 1016.9